Weather History for Bentonville, AR

Change the Weather History Date:

Saturday, January 19, 2013

  Actual Average Record
Temperature  
Mean Temperature 50 °F -  
Max Temperature 62 °F 43 °F 74 °F (1952)
Min Temperature 37 °F 21 °F -11 °F (1984)
Degree Days  
Heating Degree Days 14    
Moisture  
Dew Point 30 °F    
Average Humidity 50    
Maximum Humidity 75    
Minimum Humidity 34    
Precipitation  
Precipitation 0.00 in - - ()
Sea Level Pressure  
Sea Level Pressure 30.14 in    
Wind  
Wind Speed 10 mph (SSW)    
Max Wind Speed 17 mph    
Max Gust Speed 23 mph    
Visibility 10 miles    
Events      
Averages and records for this station are not official NWS values.
T = Trace of Precipitation, MM = Missing Value Source: NWS Daily Summary

Daily Weather History Graph

Daily Weather History Graph

Search for Another Location

Airport:

Trip Planner

Search our weather history database for the weather conditions in past years. The results will help you decide how hot, cold, wet, or windy it might be!

Date:

Astronomy

Jan. 19, 2013 Rise Set
Actual Time 7:26 AM CST 5:29 PM CST
Civil Twilight 6:58 AM CST 5:57 PM CST
Nautical Twilight 6:26 AM CST 6:29 PM CST
Astronomical Twilight 5:56 AM CST 6:59 PM CST
Moon 11:54 AM CST (1/19) 1:03 AM CST (1/19)
Length of Visible Light 10h 59m
Length of Day
10h 03m
First Quarter, 57% of the Moon is Illuminated
Jan 19
First Quarter
Jan 26
Full
Feb 3
Last Quarter
Feb 10
New
Feb 17
First Quarter

Hourly Weather History & Observations

Time (CST) Temp. Windchill Dew Point Humidity Pressure Visibility Wind Dir Wind Speed Gust Speed Precip Events Conditions
12:15 AM 41.0 °F 36.4 °F 24.8 °F 53% 30.19 in 10.0 mi SSW 6.9 mph - N/A   Clear
12:36 AM 41.0 °F 35.2 °F 24.8 °F 53% 30.19 in 10.0 mi South 9.2 mph - N/A   Clear
12:55 AM 41.0 °F 35.2 °F 24.8 °F 53% 30.18 in 10.0 mi South 9.2 mph - N/A   Clear
1:15 AM 41.0 °F 35.2 °F 24.8 °F 53% 30.18 in 10.0 mi South 9.2 mph - N/A   Clear
1:36 AM 42.8 °F 37.0 °F 24.8 °F 49% 30.18 in 10.0 mi South 10.4 mph - N/A   Clear
1:55 AM 42.8 °F 37.0 °F 24.8 °F 49% 30.18 in 10.0 mi South 10.4 mph - N/A   Clear
2:15 AM 41.0 °F 35.2 °F 24.8 °F 53% 30.18 in 10.0 mi South 9.2 mph - N/A   Clear
2:36 AM 41.0 °F 35.2 °F 24.8 °F 53% 30.18 in 10.0 mi South 9.2 mph - N/A   Clear
2:55 AM 39.2 °F 33.6 °F 24.8 °F 56% 30.17 in 10.0 mi South 8.1 mph - N/A   Clear
3:15 AM 41.0 °F 35.2 °F 24.8 °F 53% 30.16 in 10.0 mi South 9.2 mph - N/A   Clear
3:35 AM 41.0 °F 34.7 °F 24.8 °F 53% 30.16 in 10.0 mi South 10.4 mph - N/A   Clear
4:15 AM 41.0 °F 34.3 °F 26.6 °F 57% 30.15 in 10.0 mi South 11.5 mph - N/A   Clear
4:35 AM 42.8 °F 37.5 °F 26.6 °F 53% 30.15 in 10.0 mi South 9.2 mph - N/A   Clear
5:15 AM 42.8 °F 36.6 °F 26.6 °F 53% 30.14 in 10.0 mi South 11.5 mph - N/A   Clear
5:35 AM 42.8 °F 36.6 °F 26.6 °F 53% 30.15 in 10.0 mi South 11.5 mph - N/A   Clear
5:55 AM 42.8 °F 36.6 °F 28.4 °F 57% 30.14 in 10.0 mi South 11.5 mph - N/A   Clear
6:35 AM 42.8 °F 37.0 °F 28.4 °F 57% 30.14 in 10.0 mi South 10.4 mph - N/A   Clear
6:55 AM 42.8 °F 36.6 °F 28.4 °F 57% 30.14 in 10.0 mi South 11.5 mph - N/A   Clear
7:15 AM 42.8 °F 37.5 °F 28.4 °F 57% 30.14 in 10.0 mi South 9.2 mph - N/A   Clear
7:35 AM 41.0 °F 34.7 °F 28.4 °F 61% 30.14 in 10.0 mi South 10.4 mph - N/A   Clear
7:56 AM 42.8 °F 37.5 °F 28.4 °F 57% 30.14 in 10.0 mi South 9.2 mph - N/A   Clear
8:15 AM 42.8 °F 37.5 °F 28.4 °F 57% 30.15 in 10.0 mi South 9.2 mph - N/A   Clear
8:35 AM 44.6 °F 39.2 °F 28.4 °F 53% 30.15 in 10.0 mi South 10.4 mph - N/A   Clear
9:15 AM 48.2 °F - 30.2 °F 50% 30.16 in 10.0 mi SSW 12.7 mph - N/A   Clear
9:35 AM 50.0 °F - 30.2 °F 47% 30.17 in 10.0 mi SW 16.1 mph 20.7 mph N/A   Clear
9:55 AM 51.8 °F - 32.0 °F 47% 30.18 in 10.0 mi SW 17.3 mph 21.9 mph N/A   Clear
10:15 AM 53.6 °F - 32.0 °F 44% 30.18 in 10.0 mi SW 16.1 mph 21.9 mph N/A   Clear
10:35 AM 53.6 °F - 32.0 °F 44% 30.18 in 10.0 mi SW 13.8 mph 19.6 mph N/A   Clear
10:55 AM 53.6 °F - 32.0 °F 44% 30.18 in 10.0 mi SW 13.8 mph - N/A   Clear
11:16 AM 55.4 °F - 33.8 °F 44% 30.16 in 10.0 mi SW 16.1 mph 20.7 mph N/A   Clear
11:35 AM 55.4 °F - 33.8 °F 44% 30.15 in 10.0 mi SSW 16.1 mph 23.0 mph N/A   Clear
12:15 PM 57.2 °F - 33.8 °F 41% 30.13 in 10.0 mi SW 15.0 mph - N/A   Clear
12:35 PM 57.2 °F - 33.8 °F 41% 30.12 in 10.0 mi SW 15.0 mph 20.7 mph N/A   Clear
12:55 PM 59.0 °F - 33.8 °F 39% 30.11 in 10.0 mi SW 12.7 mph 18.4 mph N/A   Clear
1:15 PM 60.8 °F - 33.8 °F 36% 30.09 in 10.0 mi SW 15.0 mph - N/A   Clear
1:36 PM 60.8 °F - 33.8 °F 36% 30.09 in 10.0 mi SW 16.1 mph 19.6 mph N/A   Clear
1:55 PM 60.8 °F - 33.8 °F 36% 30.08 in 10.0 mi SSW 16.1 mph 20.7 mph N/A   Clear
2:15 PM 60.8 °F - 33.8 °F 36% 30.08 in 10.0 mi WSW 16.1 mph - N/A   Clear
2:35 PM 60.8 °F - 33.8 °F 36% 30.08 in 10.0 mi SW 13.8 mph - N/A   Clear
2:55 PM 62.6 °F - 33.8 °F 34% 30.07 in 10.0 mi SW 12.7 mph - N/A   Clear
3:15 PM 62.6 °F - 33.8 °F 34% 30.08 in 10.0 mi SSW 13.8 mph 17.3 mph N/A   Clear
3:35 PM 60.8 °F - 33.8 °F 36% 30.08 in 10.0 mi SW 15.0 mph 19.6 mph N/A   Clear
3:56 PM 60.8 °F - 33.8 °F 36% 30.09 in 10.0 mi SW 13.8 mph - N/A   Clear
4:15 PM 60.8 °F - 33.8 °F 36% 30.08 in 10.0 mi SW 11.5 mph - N/A   Clear
4:35 PM 60.8 °F - 33.8 °F 36% 30.09 in 10.0 mi SW 10.4 mph - N/A   Clear
5:15 PM 57.2 °F - 33.8 °F 41% 30.09 in 10.0 mi SSW 8.1 mph - N/A   Clear
5:35 PM 55.4 °F - 33.8 °F 44% 30.09 in 10.0 mi SSW 5.8 mph - N/A   Clear
6:15 PM 51.8 °F - 33.8 °F 50% 30.11 in 10.0 mi West 4.6 mph - N/A   Clear
6:35 PM 51.8 °F - 32.0 °F 47% 30.13 in 10.0 mi West 4.6 mph - N/A   Clear
6:55 PM 48.2 °F - 32.0 °F 54% 30.14 in 10.0 mi West 4.6 mph - N/A   Clear
7:15 PM 46.4 °F 44.3 °F 32.0 °F 57% 30.14 in 10.0 mi West 4.6 mph - N/A   Clear
7:35 PM 44.6 °F 43.1 °F 30.2 °F 57% 30.15 in 10.0 mi West 3.5 mph - N/A   Clear
7:55 PM 44.6 °F 42.2 °F 32.0 °F 61% 30.16 in 10.0 mi West 4.6 mph - N/A   Clear
8:35 PM - - - N/A% 30.17 in 10.0 mi West 4.6 mph - N/A   Clear
8:55 PM 46.4 °F 44.3 °F 32.0 °F 57% 30.17 in 10.0 mi WSW 4.6 mph - N/A   Clear
9:15 PM 44.6 °F - 32.0 °F 61% 30.17 in 10.0 mi Calm Calm - N/A   Clear
9:36 PM 44.6 °F 43.1 °F 33.8 °F 66% 30.17 in 10.0 mi WSW 3.5 mph - N/A   Clear
9:55 PM 42.8 °F 41.1 °F 30.2 °F 61% 30.18 in 10.0 mi SSW 3.5 mph - N/A   Clear
10:15 PM 39.2 °F 35.0 °F 30.2 °F 70% 30.18 in 10.0 mi South 5.8 mph - N/A   Clear
10:35 PM 39.2 °F 35.9 °F 30.2 °F 70% 30.18 in 10.0 mi South 4.6 mph - N/A   Clear
10:55 PM 39.2 °F - 30.2 °F 70% 30.18 in 10.0 mi Calm Calm - N/A   Clear
11:15 PM 37.4 °F - 30.2 °F 75% 30.18 in 10.0 mi Calm Calm - N/A   Clear